• In Austria
  • List of Countries
  • For 7 days
  • Water Temperature
  • Satellite Maps
  • Weather Map
  • News
  • Weather Widgets
  • user-avatar
    Login

    Hourly Weather La-Plata

    Today, 17 December, Sunday

    Time Temperature Precipitation Wind Pressure Humidity
    00:00 +27°C° 4.5 mm 6 mps 747 mmHg 78%
    01:00 +27°C° 4.5 mm 6 mps 748 mmHg 82%
    02:00 +26°C° 0 mm 5 mps 749 mmHg 86%
    03:00 +23°C° 0.7 mm 7 mps 750 mmHg 82%
    04:00 +21°C° 0.7 mm 9 mps 751 mmHg 78%
    05:00 +18°C° 0.7 mm 10 mps 752 mmHg 74%
    06:00 +19°C° 0 mm 10 mps 753 mmHg 68%
    07:00 +19°C° 0 mm 10 mps 755 mmHg 62%
    08:00 +18°C° 0 mm 10 mps 756 mmHg 56%
    09:00 +19°C° 0 mm 9 mps 757 mmHg 51%
    10:00 +21°C° 0 mm 9 mps 758 mmHg 46%
    11:00 +22°C° 0 mm 8 mps 759 mmHg 41%
    12:00 +23°C° 0 mm 8 mps 760 mmHg 37%
    13:00 +24°C° 0 mm 8 mps 761 mmHg 34%
    14:00 +24°C° 0 mm 7 mps 761 mmHg 30%
    15:00 +24°C° 0 mm 7 mps 762 mmHg 30%
    16:00 +24°C° 0 mm 7 mps 762 mmHg 30%
    17:00 +23°C° 0 mm 6 mps 762 mmHg 30%
    18:00 +22°C° 0 mm 6 mps 763 mmHg 33%
    19:00 +20°C° 0 mm 6 mps 763 mmHg 37%
    20:00 +17°C° 0 mm 6 mps 764 mmHg 41%
    21:00 +17°C° 0 mm 6 mps 764 mmHg 44%
    22:00 +16°C° 0 mm 6 mps 765 mmHg 47%
    23:00 +15°C° 0 mm 6 mps 766 mmHg 49%

    Tomorrow, 18 December, Monday

    Time Temperature Precipitation Wind Pressure Humidity
    00:00 +15°C° 0 mm 5 mps 766 mmHg 51%
    01:00 +14°C° 0 mm 5 mps 766 mmHg 52%
    02:00 +14°C° 0 mm 4 mps 766 mmHg 54%
    03:00 +14°C° 0 mm 4 mps 766 mmHg 55%
    04:00 +14°C° 0 mm 4 mps 766 mmHg 57%
    05:00 +13°C° 0 mm 3 mps 766 mmHg 58%
    06:00 +15°C° 0 mm 4 mps 766 mmHg 54%
    07:00 +18°C° 0 mm 4 mps 766 mmHg 49%
    08:00 +20°C° 0 mm 4 mps 766 mmHg 45%
    09:00 +21°C° 0 mm 4 mps 766 mmHg 41%
    10:00 +22°C° 0 mm 4 mps 766 mmHg 37%
    11:00 +23°C° 0 mm 4 mps 766 mmHg 34%
    12:00 +23°C° 0 mm 4 mps 765 mmHg 31%
    13:00 +25°C° 0 mm 5 mps 765 mmHg 29%
    14:00 +26°C° 0 mm 5 mps 764 mmHg 26%
    15:00 +24°C° 0 mm 6 mps 763 mmHg 28%
    16:00 +23°C° 0 mm 6 mps 763 mmHg 31%
    17:00 +23°C° 0 mm 7 mps 763 mmHg 33%
    18:00 +21°C° 0 mm 7 mps 763 mmHg 42%
    19:00 +20°C° 0 mm 7 mps 763 mmHg 51%
    20:00 +17°C° 0 mm 6 mps 764 mmHg 59%
    21:00 +17°C° 0 mm 6 mps 764 mmHg 63%
    22:00 +17°C° 0 mm 6 mps 764 mmHg 67%
    23:00 +17°C° 0 mm 6 mps 764 mmHg 71%

    Day after tomorrow, 19 December, Tuesday

    Time Temperature Precipitation Wind Pressure Humidity
    00:00 +17°C° 0 mm 6 mps 764 mmHg 71%
    01:00 +17°C° 0 mm 6 mps 764 mmHg 71%
    02:00 +17°C° 0 mm 5 mps 764 mmHg 71%
    03:00 +17°C° 0 mm 5 mps 764 mmHg 72%
    04:00 +16°C° 0 mm 5 mps 764 mmHg 72%
    05:00 +16°C° 0 mm 5 mps 764 mmHg 73%
    06:00 +17°C° 0 mm 5 mps 764 mmHg 69%
    07:00 +20°C° 0 mm 5 mps 764 mmHg 64%
    08:00 +21°C° 0 mm 5 mps 765 mmHg 59%
    09:00 +22°C° 0 mm 5 mps 765 mmHg 55%
    10:00 +22°C° 0 mm 4 mps 765 mmHg 51%
    11:00 +23°C° 0 mm 4 mps 764 mmHg 48%
    12:00 +25°C° 0 mm 4 mps 764 mmHg 46%
    13:00 +25°C° 0 mm 4 mps 763 mmHg 44%
    14:00 +26°C° 0 mm 4 mps 763 mmHg 42%
    15:00 +25°C° 0 mm 4 mps 762 mmHg 46%
    16:00 +25°C° 0 mm 4 mps 762 mmHg 49%
    17:00 +23°C° 0 mm 5 mps 762 mmHg 52%
    18:00 +22°C° 0 mm 4 mps 762 mmHg 57%
    19:00 +21°C° 0 mm 4 mps 762 mmHg 61%
    20:00 +21°C° 0 mm 4 mps 762 mmHg 65%
    21:00 +20°C° 0 mm 4 mps 762 mmHg 68%
    22:00 +20°C° 0 mm 5 mps 761 mmHg 70%
    23:00 +20°C° 0 mm 5 mps 761 mmHg 72%

    20 December, Wednesday

    Time Temperature Precipitation Wind Pressure Humidity
    00:00 +20°C° 0 mm 5 mps 761 mmHg 74%
    01:00 +19°C° 0 mm 5 mps 761 mmHg 75%
    02:00 +19°C° 0 mm 6 mps 761 mmHg 76%
    03:00 +19°C° 0 mm 5 mps 761 mmHg 78%
    04:00 +18°C° 0 mm 4 mps 760 mmHg 80%
    05:00 +18°C° 0 mm 4 mps 760 mmHg 81%
    06:00 +20°C° 0 mm 4 mps 760 mmHg 74%
    07:00 +21°C° 0 mm 4 mps 760 mmHg 68%
    08:00 +23°C° 0 mm 5 mps 760 mmHg 61%
    09:00 +26°C° 0 mm 5 mps 760 mmHg 55%
    10:00 +27°C° 0 mm 5 mps 759 mmHg 49%
    11:00 +28°C° 0 mm 4 mps 759 mmHg 44%
    12:00 +29°C° 0 mm 4 mps 758 mmHg 41%
    13:00 +30°C° 0 mm 4 mps 757 mmHg 38%
    14:00 +32°C° 0 mm 4 mps 756 mmHg 35%
    15:00 +32°C° 0 mm 5 mps 756 mmHg 37%
    16:00 +32°C° 0 mm 5 mps 756 mmHg 40%
    17:00 +30°C° 0 mm 6 mps 755 mmHg 42%
    18:00 +28°C° 0 mm 5 mps 756 mmHg 50%
    19:00 +27°C° 0 mm 5 mps 756 mmHg 59%
    20:00 +25°C° 0 mm 5 mps 756 mmHg 67%
    21:00 +24°C° 0 mm 6 mps 756 mmHg 68%
    22:00 +24°C° 0 mm 6 mps 756 mmHg 69%
    23:00 +24°C° 0 mm 7 mps 756 mmHg 69%

    21 December, Thursday

    Time Temperature Precipitation Wind Pressure Humidity
    00:00 +23°C° 0 mm 7 mps 756 mmHg 72%
    01:00 +22°C° 0 mm 6 mps 756 mmHg 75%
    02:00 +21°C° 0 mm 5 mps 756 mmHg 78%
    03:00 +21°C° 0 mm 5 mps 756 mmHg 80%
    04:00 +21°C° 0 mm 5 mps 756 mmHg 82%
    05:00 +20°C° 0 mm 5 mps 756 mmHg 84%
    06:00 +22°C° 0 mm 5 mps 757 mmHg 78%
    07:00 +23°C° 0 mm 5 mps 757 mmHg 73%
    08:00 +25°C° 0 mm 5 mps 757 mmHg 67%
    09:00 +27°C° 0 mm 4 mps 757 mmHg 58%
    10:00 +29°C° 0 mm 3 mps 756 mmHg 50%
    11:00 +31°C° 0 mm 2 mps 756 mmHg 41%
    12:00 +33°C° 0 mm 3 mps 755 mmHg 37%
    13:00 +34°C° 0 mm 3 mps 755 mmHg 33%
    14:00 +35°C° 0 mm 3 mps 754 mmHg 28%
    15:00 +35°C° 0 mm 4 mps 754 mmHg 30%
    16:00 +34°C° 0 mm 5 mps 754 mmHg 32%
    17:00 +34°C° 0 mm 5 mps 753 mmHg 34%
    18:00 +30°C° 0 mm 5 mps 754 mmHg 46%
    19:00 +28°C° 0 mm 5 mps 754 mmHg 58%
    20:00 +25°C° 0 mm 5 mps 754 mmHg 70%
    21:00 +25°C° 0 mm 5 mps 754 mmHg 73%
    22:00 +25°C° 0 mm 5 mps 754 mmHg 75%
    23:00 +25°C° 0 mm 5 mps 755 mmHg 77%

    22 December, Friday

    Time Temperature Precipitation Wind Pressure Humidity
    00:00 +23°C° 0 mm 5 mps 754 mmHg 80%
    01:00 +23°C° 0 mm 5 mps 754 mmHg 83%
    02:00 +23°C° 0 mm 5 mps 754 mmHg 86%
    03:00 +22°C° 0 mm 5 mps 754 mmHg 88%
    04:00 +22°C° 0 mm 4 mps 754 mmHg 90%
    05:00 +22°C° 0 mm 4 mps 754 mmHg 92%
    06:00 +25°C° 0 mm 4 mps 754 mmHg 84%
    07:00 +26°C° 0 mm 4 mps 754 mmHg 75%
    08:00 +28°C° 0 mm 3 mps 754 mmHg 67%
    09:00 +30°C° 0 mm 3 mps 753 mmHg 60%
    10:00 +31°C° 0 mm 3 mps 753 mmHg 52%
    11:00 +34°C° 0 mm 2 mps 753 mmHg 45%
    12:00 +35°C° 0 mm 3 mps 752 mmHg 41%
    13:00 +36°C° 0 mm 3 mps 751 mmHg 36%
    14:00 +36°C° 0 mm 3 mps 751 mmHg 32%
    15:00 +36°C° 0 mm 4 mps 750 mmHg 33%
    16:00 +36°C° 0 mm 4 mps 750 mmHg 34%
    17:00 +35°C° 0 mm 5 mps 749 mmHg 36%
    18:00 +33°C° 0.1 mm 4 mps 750 mmHg 45%
    19:00 +30°C° 0.1 mm 3 mps 750 mmHg 54%
    20:00 +28°C° 0.1 mm 3 mps 751 mmHg 63%
    21:00 +27°C° 0.1 mm 3 mps 751 mmHg 68%
    22:00 +26°C° 0.1 mm 4 mps 752 mmHg 72%
    23:00 +25°C° 0.1 mm 5 mps 752 mmHg 77%
    Show more